Location: Fort Wayne
(41.1310°N, 85.1290°W)
Time: 23:42:35
(UTC-04:00)

Cosmos 2219 Rocket - Visible Passes

Search period start: 24 September 2016 00:00
Search period end: 04 October 2016 00:00
Orbit: 827 x 848 km, 71.0° (Epoch: 24 September)

Date Brightness Start Highest point End Pass type
(mag) Time Alt. Az. Time Alt. Az. Time Alt. Az.
24 Sep 2.9 04:56:57 10° NNW 05:02:32 54° ENE 05:08:05 10° SE visible
24 Sep 3.3 06:41:52 10° NW 06:46:02 21° W 06:50:12 10° SSW visible
24 Sep 5.1 21:34:58 10° WNW 21:37:34 13° NW 21:40:12 10° NNW visible
25 Sep 3.0 04:40:39 10° NNW 04:46:11 50° ENE 04:51:41 10° SE visible
25 Sep 3.2 06:25:23 10° NW 06:29:44 23° W 06:34:05 10° SSW visible
25 Sep 5.0 21:18:15 10° WNW 21:21:09 14° NW 21:24:05 10° NNW visible
26 Sep 3.1 04:24:20 10° NNW 04:29:49 46° ENE 04:35:16 10° SE visible
26 Sep 3.1 06:08:55 10° NW 06:13:27 25° WSW 06:17:58 10° SSW visible
26 Sep 5.0 21:01:34 10° W 21:04:44 15° NW 21:07:56 10° NNW visible
27 Sep 4.4 04:08:03 10° NNW 04:20:31 - SE 04:09:24 17° N visible
27 Sep4.506:02:32SSW06:02:32SSW05:50:57NWvisible
27 Sep 4.9 20:44:55 10° W 20:48:20 16° NW 20:51:46 10° N visible
28 Sep 4.9 20:28:17 10° W 20:31:55 17° NW 20:35:34 10° N visible
29 Sep 4.8 20:11:41 10° W 20:15:31 18° NW 20:19:22 10° N visible
30 Sep 4.7 19:55:06 10° W 19:59:06 20° NW 20:03:09 10° N visible
01 Oct 4.7 19:38:32 10° W 19:42:42 21° NW 19:46:55 10° N visible
